Вернуться в каталог

FENGYUN 1C DEB

АктивенSSO
NORAD 30394·DEBRIS·🇨🇳 China

Запущен May 10, 1999 с Taiyuan Satellite Launch Center

Loading…

Ближайшие Пролёты (ближайшие 24 часа)

TLE

СвежийSource: Space-Track

Эпоха: Sep 14, 2026, 14:15 UTC

1 30394U 99025ADH 26257.59390235  .00000115  00000-0  11383-3 0  9998
2 30394  99.4058 297.0148 0089899  74.5362  87.4697 13.95966709999527

Отслеживайте FENGYUN 1C DEB в реальном времени с AllMySat

Download on the App Store